SITRO-AIS 28

Last updated on Mon Jun 22 2026 00:03:49 GMT+0000 (Coordinated Universal Time)

1 59071U 24039U 26172.54539670 .00001779 00000+0 14029-3 0 9999 2 59071 95.3911 238.3055 0142294 312.3959 46.5295 14.93780709125391
UTC large
Height (km)
Speed (km/s)
/
Latitude / Longitude
Inclination (degrees)
Orbital Period (minutes)
Azimuth
Elevation
Range (km)
Doppler Factor

Next 0 passes for location: London (51.5072 / 0.1276)

No passes found over London.
SITRO-AIS 28